CICERO 8 (43737 NORAD) Tracking and Keplerian Element Data

This shows tracking and keplerian element data for the satellite.

Feedback or suggestion? Click here.




ElementValue
Catalog43737
NameCICERO 8
Epoch Orbit24844
Epoch Day127.00187806
Epoch Year2023
RAAN223.4509
Inclination97.3224
Eccentricity0.0015566
Argument of Perigee267.4228
Mean Anonmoly92.5268
Mean Motion15.98392935
Decay Rate0.00842837
L11 43737U 18096U 23127.00187806 .00842837 32918-3 18056-2 0 9993
L22 43737 97.3224 223.4509 0015566 267.4228 92.5268 15.98392935248440



Live tracking and technical data element details for CICERO 8 (NORAD 43737). CICERO 8 can be tracked NOW for your location showing map with azimuth and elevation plus other details from your city location.







IsCatalogInMostPopularTable: catalog: 43737, numindb: 304
Update: records affected: 1



GetName: 43737 CICERO 8

Hit Count: updated at: Thu, 15 May 2025 20:04:33 GMT